K5AGY Weather Reports


Display with metric or nautical units.
time (UTC)temp
F
wind
direction
speed
MPH
gust
MPH
rain 1hr
in
rain 24hr
in
rain mn
in
humidity
%
barometer
mb
20260901171553 95 114 1.0 5.0 0.00 0.00 0.00 46 1015.3
20260901170018 93 34 0.0 5.0 0.00 0.00 0.00 48 1015.5
20260901164551 92 57 0.0 3.0 0.00 0.00 0.00 51 1015.6
20260901163026 91 181 1.0 4.0 0.00 0.00 0.00 52 1015.7
20260901161608 92 318 1.0 4.0 0.00 0.00 0.00 53 1015.8
20260901160023 91 289 2.0 5.0 0.00 0.00 0.00 53 1015.8
20260901154553 90 257 2.0 5.0 0.00 0.00 0.00 56 1015.7
20260901153031 89 289 1.0 5.0 0.00 0.00 0.00 61 1015.8
20260901151557 88 296 0.0 3.0 0.00 0.00 0.00 64 1015.8
20260901150032 88 263 1.0 5.0 0.00 0.00 0.00 65 1015.9
20260901144559 86 290 1.0 5.0 0.00 0.00 0.00 70 1016.0
20260901143025 85 353 2.0 4.0 0.00 0.00 0.00 73 1015.9
20260901141608 83 16 1.0 4.0 0.00 0.00 0.00 77 1015.8
20260901140027 81 18 2.0 4.0 0.00 0.00 0.00 80 1015.8
20260901134558 79 338 1.0 4.0 0.00 0.00 0.00 82 1015.8
20260901133042 78 356 1.0 4.0 0.00 0.00 0.00 85 1015.8
20260901131506 76 352 0.0 2.0 0.00 0.00 0.00 86 1015.7
20260901130034 75 25 1.0 2.0 0.00 0.00 0.00 85 1015.6
20260901124502 74 144 0.0 2.0 0.00 0.00 0.00 85 1015.4
20260901123035 74 167 0.0 0.0 0.00 0.00 0.00 85 1015.2
20260901121504 74 167 0.0 0.0 0.00 0.00 0.00 85 1015.0
20260901120044 73 167 0.0 0.0 0.00 0.00 0.00 85 1015.1
20260901114509 74 167 0.0 0.0 0.00 0.00 0.00 84 1015.0
20260901113050 74 167 0.0 0.0 0.00 0.00 0.00 85 1014.9
20260901111508 74 167 0.0 0.0 0.00 0.00 0.00 85 1014.8
20260901110039 74 167 0.0 0.0 0.00 0.00 0.00 84 1014.8
20260901104522 74 167 0.0 0.0 0.00 0.00 0.00 84 1014.7
20260901103044 74 167 0.0 0.0 0.00 0.00 0.00 84 1014.7
20260901101519 75 167 0.0 0.0 0.00 0.00 0.00 84 1014.6
20260901100045 75 167 0.0 0.0 0.00 0.00 0.00 83 1014.7
20260901094515 75 167 0.0 0.0 0.00 0.00 0.00 84 1014.6
20260901093051 76 167 0.0 0.0 0.00 0.00 0.00 84 1014.7
20260901091520 75 165 0.0 0.0 0.00 0.00 0.00 83 1014.9
20260901090050 75 165 0.0 0.0 0.00 0.00 0.00 83 1015.0
20260901084523 76 165 0.0 0.0 0.00 0.00 0.00 82 1015.1
20260901083053 76 165 0.0 0.0 0.00 0.00 0.00 82 1015.2
20260901081523 76 165 0.0 0.0 0.00 0.00 0.00 82 1015.1
20260901080055 76 165 0.0 0.0 0.00 0.00 0.00 81 1015.0
20260901074526 77 165 0.0 0.0 0.00 0.00 0.00 81 1014.8
20260901073056 77 165 0.0 0.0 0.00 0.00 0.00 80 1014.9
20260901071525 78 165 0.0 1.0 0.00 0.00 0.00 80 1014.9
20260901070159 78 141 0.0 1.0 0.00 0.00 0.00 80 1014.9
20260901064532 78 134 0.0 1.0 0.00 0.00 0.00 79 1015.0
20260901063001 79 134 0.0 1.0 0.00 0.00 0.00 78 1014.9
20260901061532 79 134 0.0 1.0 0.00 0.00 0.00 78 1014.7
20260901060002 80 123 0.0 2.0 0.00 0.00 0.00 77 1014.6
20260901054534 80 141 0.0 1.0 0.00 0.00 0.00 76 1014.8
20260901053001 81 129 0.0 2.0 0.00 0.00 0.00 75 1014.7
20260901051533 81 122 0.0 6.0 0.00 0.00 0.00 75 1014.6
20260901050001 82 108 0.0 3.0 0.00 0.00 0.00 74 1014.5
20260901044535 82 128 2.0 5.0 0.00 0.00 0.00 73 1014.6
20260901043006 83 116 0.0 5.0 0.00 0.00 0.00 71 1014.6
20260901041537 83 121 1.0 6.0 0.00 0.00 0.00 70 1014.4
20260901040009 84 123 3.0 8.0 0.00 0.00 0.00 68 1014.5
20260901034551 84 116 3.0 9.0 0.00 0.00 0.00 67 1014.4
20260901033012 85 108 5.0 12.0 0.00 0.00 0.00 66 1014.4
20260901031605 85 115 2.0 9.0 0.00 0.00 0.00 65 1014.2
20260901030021 86 137 3.0 9.0 0.00 0.00 0.00 64 1014.1
20260901024556 87 108 3.0 11.0 0.00 0.00 0.00 62 1013.8
20260901023028 87 139 6.0 14.0 0.00 0.00 0.00 60 1013.4
20260901021559 88 131 5.0 12.0 0.00 0.00 0.00 58 1013.2
20260901020033 89 127 6.0 14.0 0.00 0.00 0.00 56 1012.8
20260901014509 89 105 5.0 12.0 0.00 0.00 0.00 55 1012.6
20260901013045 90 113 7.0 15.0 0.00 0.00 0.00 53 1012.5
20260901011515 92 139 10.0 18.0 0.00 0.00 0.00 50 1012.3
20260901010041 93 139 4.0 8.0 0.00 0.00 0.00 42 1011.9
20260901004510 94 112 4.0 7.0 0.00 0.00 0.00 40 1011.9
20260901003057 95 105 3.0 7.0 0.00 0.00 0.00 38 1011.9
20260901001515 96 93 5.0 13.0 0.00 0.00 0.00 37 1011.8
20260901000045 97 107 5.0 12.0 0.00 0.00 0.00 36 1011.7
20260831234515 98 75 4.0 8.0 0.00 0.00 0.00 34 1011.6
20260831233047 98 152 4.0 10.0 0.00 0.00 0.00 34 1011.7
20260831231518 98 127 7.0 13.0 0.00 0.00 0.00 36 1011.7
20260831230055 98 110 8.0 15.0 0.00 0.00 0.00 36 1011.6
20260831224527 98 105 5.0 12.0 0.00 0.00 0.00 38 1011.6
20260831223100 97 126 8.0 16.0 0.00 0.00 0.00 39 1011.8
20260831221530 100 161 9.0 16.0 0.00 0.00 0.00 36 1011.8
20260831220002 100 68 2.0 9.0 0.00 0.00 0.00 32 1011.9
20260831214541 100 72 3.0 11.0 0.00 0.00 0.00 32 1012.0
20260831213007 97 65 3.0 7.0 0.00 0.00 0.00 35 1012.1
20260831211538 100 55 6.0 12.0 0.00 0.00 0.00 33 1012.3
20260831210007 100 13 1.0 6.0 0.00 0.00 0.00 32 1012.4
20260831204545 100 72 3.0 9.0 0.00 0.00 0.00 31 1012.7
20260831203008 101 53 5.0 9.0 0.00 0.00 0.00 29 1013.0
20260831201539 99 196 3.0 10.0 0.00 0.00 0.00 33 1013.3
20260831200008 100 79 2.0 8.0 0.00 0.00 0.00 33 1013.5
20260831194539 99 44 4.0 9.0 0.00 0.00 0.00 33 1013.8
20260831193012 100 58 0.0 11.0 0.00 0.00 0.00 34 1014.1
20260831191551 98 18 2.0 11.0 0.00 0.00 0.00 33 1014.4
20260831190009 98 212 1.0 11.0 0.00 0.00 0.00 37 1014.6
20260831184548 99 187 3.0 7.0 0.00 0.00 0.00 36 1014.8
20260831183014 98 167 3.0 9.0 0.00 0.00 0.00 36 1015.0
20260831181552 95 287 0.0 10.0 0.00 0.00 0.00 41 1015.1
20260831180014 96 117 5.0 11.0 0.00 0.00 0.00 41 1015.3
20260831174549 96 96 1.0 11.0 0.00 0.00 0.00 42 1015.5
20260831173018 97 105 3.0 6.0 0.00 0.00 0.00 42 1015.8